sat.trackr.live / text

‹ back to catalog

STARLINK-34325

NORAD 64262 · 2025-120G

PAYLOAD ACTIVE UNKNOWN

§ Identity

Operator
Country
US
Launch date
2025-06-04
Launch site
AFWTR
Launch vehicle
Mass (kg)
RCS (m²)

Purposes: comms

External: N2YO · Heavens-Above · Gunter

§ Orbital elements

Epoch: 2026-09-20T05:26:23.791200Z

Period
93.85 min
Inclination
53.1582°
Eccentricity
0.0001147
Mean motion
15.34388900 rev/d
Perigee alt
462.0 km
Apogee alt
463.5 km
Semi-major
6,840.9 km
B*
4.0614e-4
RAAN
290.7486°
Arg perigee
90.5430°
Mean anomaly
269.5704°
Rev number
7,373

§ Raw data

STARLINK-343251 64262U 25120G   26263.22666425  .00013366  00000+0  40614-3 0  99982 64262  53.1582 290.7486 0001147  90.5430 269.5704 15.34388900 73730

JSON: /api/v1/satellites/64262 · /tle

For live sub-satellite position, see the globe view (requires WebGL).

§ Visibility from observer

Set your observer location to see the next 7 days of passes ≥ 10°. The values pass through the URL so the page stays shareable.

No JS? Fill the form by hand. The geolocation button needs JavaScript.